Skip Page Navigation
NASA JPL Caltech
NASA Logo - Jet Propulsion Laboratory + View the NASA Portal
+ Center for Near-Earth Object Studies
JPL Home Earth Solar System Stars & Galaxies Technology
JPL Solar System Dynamics
BODIES ORBITS EPHEMERIDES TOOLS PHYSICAL DATA DISCOVERY FAQ SITE MAP
JPL Small-Body Database Browser
Search: [ help ]  
136024 (2002 VK87)
Classification: Main-belt Asteroid          SPK-ID: 2136024
Ephemeris | Orbit Diagram | Orbital Elements | Mission Design | Physical Parameters | Discovery Circumstances | Close-Approach Data ]

[ hide orbit diagram ]

For accurate long-term ephemerides, please instead use our Horizons system.This orbit viewer was implemented using two-body methods, and hence should not be used for determining accurate long-term trajectories (over several years or decades) or planetary encounter circumstances.


[ revert to old Java-based viewer ]

Orbital Elements at Epoch 2459000.5 (2020-May-31.0) TDB
Reference: JPL 15 (heliocentric ecliptic J2000)
 Element Value Uncertainty (1-sigma)   Units 
e .1072393058332812 7.2636e-08  
a 2.739718920279036 2.3143e-08 au
q 2.445913365090005 2.0488e-07 au
i 5.84319804269662 4.6956e-06 deg
node 265.4802125935288 7.2689e-05 deg
peri 78.50930492013434 7.6906e-05 deg
M 12.56410476960689 2.26e-05 deg
tp 2458942.692193734659
(2020-Apr-03.19219373)
0.00010395 TDB
period 1656.370321414785
4.53
2.0987e-05
5.746e-08
d
yr
n .2173427012943016 2.7539e-09 deg/d
Q 3.033524475468067 2.5625e-08 au
  Orbit Determination Parameters
   # obs. used (total)      560  
   data-arc span      6155 days (16.85 yr)  
   first obs. used      2001-06-16  
   last obs. used      2018-04-23  
   planetary ephem.      DE431  
   SB-pert. ephem.      SB431-N16  
   condition code      0  
   norm. resid. RMS      .53487  
   source      ORB  
   producer      Otto Matic  
   solution date      2018-Oct-04 05:23:47  

Additional Information
 Earth MOID = 1.44636 au 
 Jupiter MOID = 2.33805 au 
 T_jup = 3.335 
[ show covariance matrix ]

Ephemeris | Orbit Diagram | Orbital Elements | Mission Design | Physical Parameters | Discovery Circumstances | Close-Approach Data ]

Physical Parameter Table
Parameter Symbol Value Units Sigma Reference Notes
absolute magnitude H 14.9   n/a MPO432822  
diameter diameter 5.448 km 0.294 urn:nasa:pds:neowise_diameters_albedos::2.0[mainbelt] (http://adsabs.harvard.edu/abs/2011ApJ...741...68M)  
geometric albedo albedo 0.078   0.011 urn:nasa:pds:neowise_diameters_albedos::2.0[mainbelt] (http://adsabs.harvard.edu/abs/2011ApJ...741...68M)  

136024 (2002 VK87)          Discovered 2002-Nov-08 by LINEAR at Socorro
Reference: 20060907/Numbers.arcLast Updated: 2006-09-10

[ show close-approach data ]
Ephemeris | Orbit Diagram | Orbital Elements | Mission Design | Physical Parameters | Discovery Circumstances | Close-Approach Data ]
ABOUT SSD CREDITS/AWARDS PRIVACY/COPYRIGHT GLOSSARY LINKS
FirstGov 2020-Sep-18 10:11 UT
(server date/time)  
NASA Home Page
Site Manager:   Ryan S. Park
Webmaster  Alan B. Chamberlin